Regional Weather Roundup
Issued by NWS

Home | Current Version | Previous Version | Graphics & Text | Print | Product List | Glossary On
Versions: 1 2 3 4 5 6 7 8 9 10 11 12 13 14 15 16 17 18 19 20 21 22 23 24 25 26 27 28 29 30 31 32 33 34 35 36 37 38 39 40 41 42 43 44 45 46 47 48 49 50
000
ASUS45 KPSR 190600
RWRAZ

PRELIMINARY ARIZONA REGIONAL HOURLY WEATHER ROUNDUP
NATIONAL WEATHER SERVICE PHOENIX AZ
1100 PM MST THU DEC 18 2014

NOTE: FAIR INDICATES FEW OR NO CLOUDS BELOW 12,000 FEET WITH NO
SIGNIFICANT WEATHER AND/OR OBSTRUCTIONS TO VISIBILITY.

AZZ001>003-036-190700-
NORTHWEST ARIZONA

CITY           SKY/WX    TMP DP  RH WIND       PRES   REMARKS
KINGMAN        CLEAR     35  32  88 SE8       30.22S WCI  29
6HR MIN TEMP:  35; 6HR MAX TEMP:  50;

$$

AZZ004>008-015-016-018-190700-
NORTH CENTRAL ARIZONA

CITY           SKY/WX    TMP DP  RH WIND       PRES   REMARKS
GRAND CANYON   CLEAR     22  19  89 CALM      30.22S
6HR MIN TEMP:  22; 6HR MAX TEMP:  34;

PRESCOTT       CLEAR     31  26  82 S3        30.21R
6HR MIN TEMP:  30; 6HR MAX TEMP:  43;

FLAGSTAFF      CLEAR     19  16  86 CALM      30.21R
PAYSON         CLEAR     32  30  93 CALM      30.22R
PAGE           CLEAR     39  30  70 S6        30.20R WCI  35
6HR MIN TEMP:  37; 6HR MAX TEMP:  42;

$$

AZZ009>014-017-190700-
NORTHEAST ARIZONA

CITY           SKY/WX    TMP DP  RH WIND       PRES   REMARKS
WINSLOW        NOT AVBL
SAINT JOHNS    MOCLDY    30  29  96 W5        30.20R WCI  25
6HR MIN TEMP:  29; 6HR MAX TEMP:  36; 6HR PCP: TRACE;

WINDOW ROCK    CLEAR     26  21  81 CALM      30.19R
6HR MIN TEMP:  26; 6HR MAX TEMP:  33;

SHOW LOW       CLOUDY    25  25 100 CALM      30.22R
$$

AZZ023-190700-
GREATER PHOENIX AREA

CITY           SKY/WX    TMP DP  RH WIND       PRES   REMARKS
PHOENIX        CLEAR     52  43  71 CALM      30.18R
6HR MIN TEMP:  52; 6HR MAX TEMP:  61;

DEER VALLEY    CLEAR     47  43  86 NE3       30.18R
6HR MIN TEMP:  45; 6HR MAX TEMP:  58;

SCOTTSDALE     CLEAR     49  42  77 NE3       30.20R
6HR MIN TEMP:  48; 6HR MAX TEMP:  59;

MESA-GATEWAY   CLEAR     45  43  93 E6        30.21R
$$

AZZ027-028-190700-
SOUTHWEST MARICOPA COUNTY AND PINAL COUNTY

CITY           SKY/WX    TMP DP  RH WIND       PRES   REMARKS
CASA GRANDE    CLEAR     46  43  87 CALM      30.19S
6HR MIN TEMP:  45; 6HR MAX TEMP:  57;

GILA BEND      CLEAR     48  45  88 S6        30.20R
6HR MIN TEMP:  48; 6HR MAX TEMP:  61;

$$

AZZ503-504-507>509-190700-
SOUTHEAST ARIZONA

CITY           SKY/WX    TMP DP  RH WIND       PRES   REMARKS
TUCSON         CLEAR     44  39  82 SE6       30.20R
6HR MIN TEMP:  43; 6HR MAX TEMP:  55;

DAVIS-MONTHAN  CLEAR     41  38  91 S2        30.18R
6HR MIN TEMP:  41; 6HR MAX TEMP:  53;

NOGALES        PTCLDY    36  32  85 CALM      30.18R
6HR MIN TEMP:  36; 6HR MAX TEMP:  49;

SIERRA VISTA   CLEAR     37  34  87 CALM      30.18S
SAFFORD        CLEAR     39  38  96 SE3       30.18R
6HR MIN TEMP:  39; 6HR MAX TEMP:  47;

$$

AZZ020-021-025-026-031-190700-
SOUTHWEST ARIZONA

CITY           SKY/WX    TMP DP  RH WIND       PRES   REMARKS
YUMA           PTCLDY   N/A  43 N/A SW3       30.19R
$$

CAZ031-033-041-043-047-048-061-190700-
SOUTHERN CALIFORNIA

CITY           SKY/WX    TMP DP  RH WIND       PRES   REMARKS
DOWNTOWN L.A.  CLEAR     53  48  83 CALM      30.21R
6HR MIN TEMP:  53; 6HR MAX TEMP:  62;

L.A. AIRPORT   CLEAR     56  51  84 CALM      30.22R
6HR MIN TEMP:  56; 6HR MAX TEMP:  59;

SAN DIEGO      PTCLDY    59  50  72 CALM      30.22S
6HR MIN TEMP:  59; 6HR MAX TEMP:  64;

BURBANK        CLEAR     51  45  79 CALM      30.21R
6HR MIN TEMP:  51; 6HR MAX TEMP:  60;

ONTARIO        PTCLDY    51  45  79 E3        30.21S
6HR MIN TEMP:  51; 6HR MAX TEMP:  60;

RIVERSIDE      CLEAR     50  45  83 CALM      30.22R
6HR MIN TEMP:  49; 6HR MAX TEMP:  60;

PALM SPRINGS   CLEAR     53  43  68 N7        30.23R
6HR MIN TEMP:  53; 6HR MAX TEMP:  65;

EL CENTRO NAS  CLEAR     51  42  71 CALM      30.20R
6HR MIN TEMP:  50; 6HR MAX TEMP:  66;

IMPERIAL       CLEAR     51  43  74 CALM      30.20R
6HR MIN TEMP:  50; 6HR MAX TEMP:  66;

BLYTHE         CLEAR     51  45  79 W5        30.20R
6HR MIN TEMP:  51; 6HR MAX TEMP:  62;

$$

NVZ020-UTZ003-190700-
SOUTHERN NEVADA-UTAH

CITY           SKY/WX    TMP DP  RH WIND       PRES   REMARKS
LAS VEGAS      NOT AVBL
SALT LAKE CITY PTCLDY    33  28  81 SE7       30.20R WCI  27
6HR MIN TEMP:  32; 6HR MAX TEMP:  41;

$$

NMZ009-TXZ055-190700-
NEW MEXICO-WEST TEXAS

CITY           SKY/WX    TMP DP  RH WIND       PRES   REMARKS
ALBUQUERQUE    PTCLDY    32  27  81 CALM      30.16R
6HR MIN TEMP:  32; 6HR MAX TEMP:  42;

EL PASO        MOCLDY    47  37  68 W12       30.14R
6HR MIN TEMP:  46; 6HR MAX TEMP:  54; 6HR PCP:  0.01;

$$


........................KEY........................
SKY/WX - SKY CONDITION/WEATHER
TMP    - TEMPERATURE IN FAHRENHEIT
DP     - DEW POINT IN FAHRENHEIT
RH     - RELATIVE HUMIDITY IN PERCENT
WIND   - DIRECTION AND SPEED IN MILES PER HOUR (MPH)
VRB    - VARIABLE WIND DIRECTION
PRES   - MEAN SEA LEVEL PRESSURE IN INCHES OF MERCURY
         F - FALLING PRESSURE   R - RISING PRESSURE
         S - STEADY PRESSURE
VSB    - VISIBILITY IN MILES
HX     - HEAT INDEX IN FAHRENHEIT
WCI    - WIND CHILL INDEX IN FAHRENHEIT
TC     - TEMPERATURE IN CELSIUS WHICH IS ALSO KNOWN AS
         TEMPERATURE IN CENTIGRADE
AFB    - AIR FORCE BASE
         LUKE AFB IS LUKE AIR FORCE BASE
         DAVIS-MONTHAN IS DAVIS-MONTHAN AIR FORCE BASE
NAS    - NAVAL AIR STATION
         EL CENTRO NAS IS EL CENTRO NAVAL AIR STATION
N/A    - NOT AVAILABLE



USA.gov is the U.S. government's official web portal to all federal, state and local government web resources and services.